TimeEDT,TemperatureF,Dew PointF,Humidity,Sea Level PressureIn,VisibilityMPH,Wind Direction,Wind SpeedMPH,Gust SpeedMPH,PrecipitationIn,Events,Conditions,WindDirDegrees,DateUTC
12:09 AM,48.2,46.4,93,30.19,1.0,Calm,Calm,-,N/A,,Overcast,0,2013-05-07 04:09:00
12:18 AM,48.2,46.4,93,30.19,0.5,SSW,3.5,-,N/A,Fog,Fog,210,2013-05-07 04:18:00
12:40 AM,48.2,46.4,93,30.19,0.2,SW,3.5,-,N/A,Fog,Fog,230,2013-05-07 04:40:00
12:47 AM,48.2,46.4,93,30.18,0.5,SW,3.5,-,N/A,Fog,Fog,220,2013-05-07 04:47:00
12:52 AM,48.0,46.0,93,30.19,0.2,SW,4.6,-,N/A,Fog,Fog,230,2013-05-07 04:52:00
1:00 AM,48.2,44.6,87,30.18,0.5,WSW,4.6,-,N/A,Fog,Fog,250,2013-05-07 05:00:00
1:08 AM,48.2,44.6,87,30.18,0.2,SW,3.5,-,N/A,Fog,Fog,230,2013-05-07 05:08:00
1:52 AM,48.0,45.0,89,30.18,0.5,SW,4.6,-,N/A,Fog,Fog,220,2013-05-07 05:52:00
2:02 AM,46.4,44.6,93,30.18,0.5,SSW,4.6,-,N/A,Fog,Fog,210,2013-05-07 06:02:00
2:13 AM,46.4,44.6,93,30.18,0.2,SSW,3.5,-,N/A,Fog,Fog,210,2013-05-07 06:13:00
2:41 AM,46.4,44.6,93,30.17,0.5,WSW,3.5,-,N/A,Fog,Fog,250,2013-05-07 06:41:00
2:52 AM,46.9,44.1,90,30.17,0.5,SW,3.5,-,N/A,Fog,Fog,230,2013-05-07 06:52:00
2:58 AM,46.4,44.6,93,30.17,0.2,WSW,3.5,-,N/A,Fog,Fog,240,2013-05-07 06:58:00
3:32 AM,46.4,44.6,93,30.17,0.5,Calm,Calm,-,N/A,Fog,Fog,0,2013-05-07 07:32:00
4:07 AM,46.4,44.6,93,30.17,0.2,Calm,Calm,-,N/A,Fog,Fog,0,2013-05-07 08:07:00
4:22 AM,46.4,42.8,87,30.18,0.5,Calm,Calm,-,N/A,Fog,Fog,0,2013-05-07 08:22:00
4:39 AM,44.6,42.8,93,30.17,2.5,Calm,Calm,-,N/A,,Mostly Cloudy,0,2013-05-07 08:39:00
4:52 AM,44.1,41.0,89,30.17,10.0,Calm,Calm,-,N/A,,Scattered Clouds,0,2013-05-07 08:52:00
5:26 AM,44.6,41.0,87,30.17,7.0,Calm,Calm,-,N/A,,Mostly Cloudy,0,2013-05-07 09:26:00
5:32 AM,44.6,41.0,87,30.17,2.5,Calm,Calm,-,N/A,,Scattered Clouds,0,2013-05-07 09:32:00
5:43 AM,42.8,39.2,87,30.17,9.0,NNW,3.5,-,N/A,,Scattered Clouds,330,2013-05-07 09:43:00
5:52 AM,44.1,41.0,89,30.17,10.0,NNW,3.5,-,N/A,,Partly Cloudy,340,2013-05-07 09:52:00
6:52 AM,48.0,45.0,89,30.19,10.0,Calm,Calm,-,N/A,,Overcast,0,2013-05-07 10:52:00
7:52 AM,53.1,48.9,86,30.19,10.0,Calm,Calm,-,N/A,,Overcast,0,2013-05-07 11:52:00
8:52 AM,59.0,51.1,75,30.19,10.0,NE,4.6,-,N/A,,Overcast,40,2013-05-07 12:52:00
9:52 AM,64.9,50.0,58,30.19,10.0,East,5.8,-,N/A,,Overcast,90,2013-05-07 13:52:00
10:41 AM,66.2,48.2,52,30.20,10.0,ENE,6.9,-,N/A,,Overcast,70,2013-05-07 14:41:00
10:52 AM,66.9,48.9,52,30.20,10.0,ESE,9.2,-,N/A,,Overcast,110,2013-05-07 14:52:00
11:02 AM,66.2,48.2,52,30.20,10.0,ESE,9.2,-,N/A,,Overcast,110,2013-05-07 15:02:00
11:12 AM,66.2,48.2,52,30.20,10.0,ESE,8.1,-,N/A,,Overcast,120,2013-05-07 15:12:00
11:52 AM,68.0,53.1,59,30.18,10.0,East,8.1,-,N/A,,Mostly Cloudy,100,2013-05-07 15:52:00
12:52 PM,73.0,55.0,53,30.17,10.0,Variable,5.8,-,N/A,,Partly Cloudy,0,2013-05-07 16:52:00
1:52 PM,73.0,55.0,53,30.15,10.0,Variable,4.6,-,N/A,,Partly Cloudy,0,2013-05-07 17:52:00
2:52 PM,73.9,55.9,53,30.14,10.0,SSE,10.4,16.1,N/A,,Partly Cloudy,160,2013-05-07 18:52:00
3:52 PM,72.0,55.9,57,30.14,10.0,SSE,11.5,19.6,N/A,,Clear,160,2013-05-07 19:52:00
4:52 PM,72.0,55.9,57,30.13,10.0,SSW,10.4,-,N/A,,Partly Cloudy,200,2013-05-07 20:52:00
5:52 PM,70.0,55.0,59,30.13,10.0,SSW,9.2,18.4,N/A,,Clear,200,2013-05-07 21:52:00
6:52 PM,68.0,54.0,61,30.15,10.0,South,9.2,18.4,N/A,,Clear,190,2013-05-07 22:52:00
7:52 PM,64.9,52.0,63,30.16,10.0,SSW,5.8,-,N/A,,Clear,210,2013-05-07 23:52:00
8:52 PM,62.1,52.0,70,30.18,10.0,South,3.5,-,N/A,,Clear,190,2013-05-08 00:52:00
9:52 PM,60.1,53.1,78,30.19,10.0,Calm,Calm,-,N/A,,Clear,0,2013-05-08 01:52:00
10:52 PM,59.0,53.1,81,30.19,10.0,Calm,Calm,-,N/A,,Clear,0,2013-05-08 02:52:00
11:52 PM,55.9,52.0,87,30.19,10.0,Calm,Calm,-,N/A,,Clear,0,2013-05-08 03:52:00